CW4226 Weather Reports


Display with metric or nautical units.
time (UTC)temp
F
wind
direction
speed
MPH
gust
MPH
rain 1hr
in
rain 24hr
in
rain mn
in
humidity
%
barometer
mb
20210921091301 53 176 0.0 3.0 0.00 0.00 0.00 100 1021.8
20210921090801 53 180 0.0 0.0 0.00 0.00 0.00 100 1021.8
20210921090301 53 180 0.0 1.0 0.00 0.00 0.00 100 1021.7
20210921084801 54 246 0.0 0.0 0.00 0.00 0.00 100 1021.7
20210921084301 54 246 0.0 1.0 0.00 0.00 0.00 100 1021.5
20210921083801 54 205 0.0 2.0 0.00 0.00 0.00 100 1021.4
20210921083301 54 116 0.0 3.0 0.00 0.00 0.00 100 1021.4
20210921081801 54 267 1.0 3.0 0.00 0.00 0.00 100 1021.3
20210921081301 54 133 1.0 3.0 0.00 0.00 0.00 100 1021.2
20210921080801 54 126 2.0 5.0 0.00 0.00 0.00 100 1021.2
20210921080304 54 82 0.0 3.0 0.00 0.00 0.00 100 1021.2
20210921074801 55 103 2.0 3.0 0.00 0.00 0.00 100 1021.0
20210921074301 55 156 2.0 5.0 0.00 0.00 0.00 100 1021.0
20210921073801 55 111 2.0 3.0 0.00 0.00 0.00 100 1021.0
20210921073301 55 142 1.0 7.0 0.00 0.00 0.00 100 1021.1
20210921071801 55 137 2.0 5.0 0.00 0.00 0.00 100 1021.1
20210921071301 55 164 3.0 5.0 0.00 0.00 0.00 100 1021.1
20210921070801 55 194 1.0 6.0 0.00 0.00 0.00 100 1021.2
20210921070302 55 142 2.0 7.0 0.00 0.00 0.00 100 1021.1
20210921064801 55 121 2.0 12.0 0.00 0.00 0.00 100 1021.2
20210921064301 55 148 2.0 7.0 0.00 0.00 0.00 100 1021.3
20210921063801 55 134 2.0 6.0 0.00 0.00 0.00 100 1021.4
20210921063301 54 156 2.0 9.0 0.00 0.00 0.00 100 1021.3
20210921061801 54 130 2.0 6.0 0.00 0.00 0.00 100 1021.3
20210921061301 54 120 2.0 5.0 0.00 0.00 0.00 100 1021.5
20210921060801 54 105 2.0 5.0 0.00 0.00 0.00 100 1021.6
20210921060301 54 112 1.0 6.0 0.00 0.00 0.00 100 1021.7
20210921054801 54 94 1.0 3.0 0.00 0.00 0.00 100 1021.7
20210921054301 54 128 1.0 3.0 0.00 0.00 0.00 100 1021.7
20210921053801 54 149 1.0 6.0 0.00 0.00 0.00 100 1021.7
20210921053301 54 136 0.0 3.0 0.00 0.00 0.00 100 1021.7
20210921051801 54 121 0.0 2.0 0.00 0.00 0.00 100 1021.9
20210921051301 54 132 1.0 3.0 0.00 0.00 0.00 100 1021.9
20210921050801 54 125 1.0 3.0 0.00 0.00 0.00 100 1021.8
20210921050302 54 141 0.0 5.0 0.00 0.00 0.00 100 1021.9
20210921044801 53 137 1.0 3.0 0.00 0.00 0.00 100 1022.2
20210921044301 53 204 1.0 2.0 0.00 0.00 0.00 100 1022.1
20210921043801 54 84 1.0 3.0 0.00 0.00 0.00 100 1022.0
20210921043301 54 200 0.0 1.0 0.00 0.00 0.00 100 1022.0
20210921041801 54 200 0.0 2.0 0.00 0.00 0.00 100 1022.0
20210921041301 54 200 0.0 3.0 0.00 0.00 0.00 100 1021.9
20210921040801 55 125 1.0 3.0 0.00 0.00 0.00 100 1021.8
20210921040302 55 130 0.0 3.0 0.00 0.00 0.00 100 1021.9
20210921034801 55 109 0.0 3.0 0.00 0.00 0.00 100 1021.8
20210921034300 55 130 1.0 5.0 0.00 0.00 0.00 100 1022.0
20210921033801 55 133 2.0 6.0 0.00 0.00 0.00 100 1022.0
20210921033301 55 122 2.0 6.0 0.00 0.00 0.00 100 1022.0
20210921031801 56 138 2.0 7.0 0.00 0.00 0.00 100 1021.8
20210921031303 56 132 1.0 7.0 0.00 0.00 0.00 100 1021.8
20210921030801 56 107 2.0 5.0 0.00 0.00 0.00 100 1021.9
20210921030302 56 232 1.0 5.0 0.00 0.00 0.00 100 1022.0
20210921024801 56 219 1.0 3.0 0.00 0.00 0.00 100 1021.9
20210921024301 57 130 1.0 3.0 0.00 0.00 0.00 100 1021.8
20210921023801 57 113 2.0 5.0 0.00 0.00 0.00 100 1021.9
20210921023301 57 139 2.0 10.0 0.00 0.00 0.00 100 1021.8
20210921021801 57 131 2.0 3.0 0.00 0.00 0.00 100 1021.8
20210921021301 57 121 1.0 3.0 0.00 0.00 0.00 100 1021.8
20210921020801 57 180 1.0 6.0 0.00 0.00 0.00 100 1021.8
20210921020302 57 130 2.0 6.0 0.00 0.00 0.00 100 1021.8
20210921014801 57 130 0.0 3.0 0.00 0.00 0.00 100 1021.8
20210921014301 57 124 1.0 2.0 0.00 0.00 0.00 100 1021.7
20210921013801 57 80 0.0 5.0 0.00 0.00 0.00 100 1021.7
20210921013301 57 143 0.0 3.0 0.00 0.00 0.00 100 1021.7
20210921011801 58 194 0.0 3.0 0.00 0.00 0.00 99 1021.6
20210921011301 58 188 1.0 3.0 0.00 0.00 0.00 100 1021.6
20210921010803 58 110 0.0 3.0 0.00 0.00 0.00 99 1021.6
20210921010301 58 153 1.0 6.0 0.00 0.00 0.00 100 1021.8
20210921004801 58 161 1.0 3.0 0.00 0.00 0.00 100 1021.8
20210921004301 58 104 2.0 3.0 0.00 0.00 0.00 100 1021.8
20210921003804 58 108 1.0 3.0 0.00 0.00 0.00 100 1021.7
20210921003301 58 77 1.0 3.0 0.00 0.00 0.00 100 1021.7
20210921001801 58 103 0.0 2.0 0.00 0.00 0.00 100 1021.6
20210921001300 57 98 1.0 3.0 0.00 0.00 0.00 100 1021.4
20210921000804 57 164 1.0 3.0 0.00 0.00 0.00 100 1021.3
20210921000302 57 126 0.0 0.0 0.00 0.00 0.00 100 1022.0
20210920234801 58 126 0.0 0.0 0.00 0.00 0.00 98 1022.1
20210920234301 58 126 0.0 0.0 0.00 0.00 0.00 97 1022.1
20210920233800 58 126 0.0 0.0 0.00 0.00 0.00 96 1022.0
20210920233301 59 126 0.0 0.0 0.00 0.00 0.00 95 1021.9
20210920231801 60 126 0.0 0.0 0.00 0.00 0.00 90 1021.9
20210920231301 61 126 0.0 0.0 0.00 0.00 0.00 90 1021.8
20210920230803 61 126 0.0 0.0 0.00 0.00 0.00 89 1021.7
20210920230301 62 126 0.0 3.0 0.00 0.00 0.00 87 1021.9
20210920224801 63 130 0.0 3.0 0.00 0.00 0.00 84 1022.0
20210920224302 63 83 1.0 5.0 0.00 0.00 0.00 83 1022.0
20210920223800 63 150 0.0 3.0 0.00 0.00 0.00 82 1022.0
20210920223301 64 88 0.0 6.0 0.00 0.00 0.00 82 1021.8
20210920221800 64 122 1.0 3.0 0.00 0.00 0.00 80 1021.8
20210920221300 65 170 2.0 8.0 0.00 0.00 0.00 80 1021.8
20210920220801 65 126 3.0 7.0 0.00 0.00 0.00 80 1021.6
20210920220301 65 134 3.0 9.0 0.00 0.00 0.00 79 1021.6
20210920214801 65 178 2.0 5.0 0.00 0.00 0.00 81 1021.5
20210920214301 65 102 1.0 5.0 0.00 0.00 0.00 80 1021.4
20210920213801 65 146 4.0 8.0 0.00 0.00 0.00 80 1021.5
20210920213300 66 138 3.0 10.0 0.00 0.00 0.00 80 1021.5
20210920211801 66 134 3.0 6.0 0.00 0.00 0.00 80 1021.6
20210920211301 66 123 4.0 8.0 0.00 0.00 0.00 79 1021.6
20210920210801 67 116 4.0 10.0 0.00 0.00 0.00 79 1021.3
20210920210301 67 99 2.0 8.0 0.00 0.00 0.00 79 1021.4
20210920204801 68 122 5.0 9.0 0.00 0.00 0.00 78 1021.3
20210920204301 68 132 3.0 6.0 0.00 0.00 0.00 77 1021.3
20210920203801 68 116 2.0 5.0 0.00 0.00 0.00 80 1021.3
20210920203301 67 112 2.0 10.0 0.00 0.00 0.00 79 1021.5
20210920201800 68 98 2.0 12.0 0.00 0.00 0.00 77 1021.3
20210920201301 68 120 2.0 7.0 0.00 0.00 0.00 75 1021.3
20210920200801 69 144 5.0 10.0 0.00 0.00 0.00 75 1021.2
20210920200304 69 114 3.0 12.0 0.00 0.00 0.00 75 1021.0
20210920194804 70 122 2.0 7.0 0.00 0.00 0.00 72 1021.0
20210920194301 70 133 2.0 6.0 0.00 0.00 0.00 76 1021.0
20210920193801 70 138 3.0 9.0 0.00 0.00 0.00 73 1021.0
20210920193303 70 110 5.0 10.0 0.00 0.00 0.00 72 1021.1
20210920191801 70 128 3.0 10.0 0.00 0.00 0.00 74 1021.2
20210920191301 70 167 3.0 7.0 0.00 0.00 0.00 74 1021.2
20210920190801 70 115 3.0 10.0 0.00 0.00 0.00 73 1021.2
20210920190301 70 161 2.0 10.0 0.00 0.00 0.00 72 1021.2
20210920184800 71 154 3.0 7.0 0.00 0.00 0.00 73 1021.2
20210920184300 70 128 3.0 5.0 0.00 0.00 0.00 75 1021.3
20210920183800 70 228 5.0 7.0 0.00 0.00 0.00 70 1021.3
20210920183300 70 164 3.0 10.0 0.00 0.00 0.00 72 1021.3
20210920181800 70 71 2.0 7.0 0.00 0.00 0.00 72 1021.4
20210920181301 70 103 4.0 9.0 0.00 0.00 0.00 73 1021.4
20210920180801 71 132 6.0 12.0 0.00 0.00 0.00 69 1021.2
20210920180301 71 218 2.0 10.0 0.00 0.00 0.00 71 1021.3
20210920174801 70 111 3.0 6.0 0.00 0.00 0.00 71 1021.4
20210920174300 70 161 3.0 9.0 0.00 0.00 0.00 71 1021.4
20210920173800 70 130 4.0 10.0 0.00 0.00 0.00 72 1021.4
20210920173300 70 126 5.0 9.0 0.00 0.00 0.00 72 1021.4
20210920171800 70 165 3.0 9.0 0.00 0.00 0.00 73 1021.4
20210920171301 70 251 5.0 7.0 0.00 0.00 0.00 70 1021.4
20210920170800 70 132 3.0 7.0 0.00 0.00 0.00 69 1021.5
20210920170301 70 210 3.0 8.0 0.00 0.00 0.00 70 1021.5
20210920164801 70 94 3.0 7.0 0.00 0.00 0.00 71 1021.5
20210920164301 70 102 3.0 6.0 0.00 0.00 0.00 70 1021.6
20210920163801 70 131 3.0 6.0 0.00 0.00 0.00 71 1021.6
20210920163301 70 150 3.0 6.0 0.00 0.00 0.00 68 1021.6
20210920161800 69 153 3.0 7.0 0.00 0.00 0.00 67 1021.8
20210920161301 69 126 2.0 5.0 0.00 0.00 0.00 71 1021.7
20210920160801 69 228 3.0 9.0 0.00 0.00 0.00 70 1021.7
20210920160301 69 131 2.0 14.0 0.00 0.00 0.00 70 1021.7
20210920154801 69 124 1.0 5.0 0.00 0.00 0.00 71 1021.7
20210920154300 69 119 3.0 9.0 0.00 0.00 0.00 70 1021.8
20210920153801 69 157 2.0 9.0 0.00 0.00 0.00 72 1021.9
20210920153301 68 118 3.0 8.0 0.00 0.00 0.00 72 1021.9
20210920151801 68 143 3.0 9.0 0.00 0.00 0.00 73 1022.0
20210920151300 68 123 2.0 6.0 0.00 0.00 0.00 72 1022.0
20210920150801 68 150 3.0 7.0 0.00 0.00 0.00 75 1022.1
20210920150304 67 121 3.0 9.0 0.00 0.00 0.00 73 1022.0
20210920144803 67 103 3.0 7.0 0.00 0.01 0.00 73 1021.9
20210920144301 66 138 3.0 6.0 0.00 0.01 0.00 71 1022.0
20210920143800 66 114 2.0 7.0 0.00 0.01 0.00 72 1021.9
20210920143303 66 137 4.0 12.0 0.00 0.01 0.00 74 1022.0
20210920141803 66 231 5.0 12.0 0.00 0.01 0.00 71 1022.0
20210920141301 66 196 3.0 5.0 0.00 0.01 0.00 72 1021.9
20210920140801 66 128 2.0 6.0 0.00 0.01 0.00 77 1021.8
20210920140303 66 119 2.0 5.0 0.00 0.01 0.00 74 1021.8
20210920134803 65 238 2.0 5.0 0.00 0.01 0.00 77 1021.7
20210920134301 64 220 3.0 5.0 0.00 0.01 0.00 74 1021.9
20210920133801 64 212 2.0 7.0 0.00 0.01 0.00 78 1021.8
20210920133303 64 182 2.0 5.0 0.00 0.01 0.00 78 1021.8
20210920131803 64 113 2.0 3.0 0.00 0.01 0.00 78 1021.5
20210920131300 63 148 1.0 5.0 0.00 0.01 0.00 79 1021.4
20210920130800 63 146 1.0 3.0 0.00 0.01 0.00 79 1021.4
20210920130303 63 144 1.0 5.0 0.00 0.01 0.00 81 1021.3
20210920124803 61 308 1.0 3.0 0.00 0.01 0.00 86 1021.3
20210920124301 59 309 0.0 1.0 0.00 0.01 0.00 91 1021.4
20210920123801 58 309 0.0 1.0 0.00 0.01 0.00 94 1021.5
20210920123303 57 309 0.0 2.0 0.00 0.01 0.00 100 1021.4
20210920121803 54 309 0.0 0.0 0.00 0.01 0.00 100 1021.7
20210920121300 53 309 0.0 0.0 0.00 0.01 0.00 100 1021.7
20210920120801 52 309 0.0 0.0 0.00 0.01 0.00 100 1021.8
20210920120304 51 309 0.0 0.0 0.00 0.01 0.00 100 1021.8
20210920114803 49 309 0.0 0.0 0.00 0.01 0.00 100 1021.9
20210920114300 48 309 0.0 0.0 0.00 0.01 0.00 100 1022.1
20210920113801 47 309 0.0 0.0 0.00 0.01 0.00 100 1022.1
20210920113303 47 309 0.0 0.0 0.00 0.01 0.00 100 1022.0
20210920111803 46 309 0.0 0.0 0.00 0.01 0.00 100 1021.9
20210920111300 46 309 0.0 0.0 0.00 0.01 0.00 100 1021.9
20210920110800 46 309 0.0 0.0 0.00 0.01 0.00 100 1021.9
20210920110304 46 309 0.0 0.0 0.00 0.01 0.00 100 1021.5
20210920104803 46 309 0.0 0.0 0.00 0.01 0.00 100 1021.3
20210920104301 46 309 0.0 0.0 0.00 0.01 0.00 100 1021.3
20210920103800 46 309 0.0 0.0 0.00 0.01 0.00 100 1021.3
20210920103303 46 309 0.0 0.0 0.00 0.01 0.00 100 1021.2
20210920101803 46 309 0.0 0.0 0.00 0.01 0.00 100 1021.1
20210920101300 46 309 0.0 0.0 0.00 0.01 0.00 100 1021.0
20210920100802 46 309 0.0 0.0 0.00 0.01 0.00 100 1020.9
20210920100304 46 309 0.0 0.0 0.00 0.01 0.00 100 1020.6
20210920094804 47 309 0.0 0.0 0.00 0.01 0.00 100 1020.4
20210920094301 47 309 0.0 0.0 0.00 0.01 0.00 100 1020.5
20210920093800 47 309 0.0 0.0 0.00 0.01 0.00 100 1020.4
20210920093303 47 309 0.0 0.0 0.00 0.01 0.00 100 1020.4
20210920091803 47 309 0.0 0.0 0.00 0.01 0.00 100 1020.4